Total_Precipitation_Accumulation
0.00 0.03 0.04 0.06 0.08 0.32 0.58 0.72 1.21 1.58 0.87 0.35 0.41 0.64 0.53 0.47 0.29 0.28 0.35 0.24 0.34 0.27 0.23 0.14 0.09 0.05 0.01 0.00 0.00 0.00 0.00 0.00
0.02 0.05 0.06 0.08 0.18 0.42 0.64 1.00 0.97 0.47 0.23 0.14 0.26 0.46 0.59 0.52 0.38 0.27 0.32 0.32 0.36 0.48 0.47 0.37 0.13 0.03 0.01 0.01 0.01 0.00 0.00 0.00
0.01 0.04 0.10 0.29 0.44 0.44 0.33 0.15 0.13 0.04 0.06 0.08 0.11 0.20 0.41 0.40 0.34 0.17 0.30 0.32 0.43 0.34 0.33 0.52 0.30 0.12 0.02 0.02 0.02 0.02 0.03 0.02
0.04 0.08 0.13 0.11 0.05 0.02 0.06 0.08 0.14 0.05 0.04 0.05 0.09 0.27 0.42 0.33 0.38 0.23 0.21 0.25 0.34 0.35 0.39 0.40 0.24 0.11 0.05 0.02 0.01 0.00 0.01 0.03
0.03 0.00 0.00 0.01 0.02 0.03 0.06 0.12 0.15 0.05 0.02 0.02 0.04 0.13 0.23 0.24 0.21 0.17 0.13 0.18 0.25 0.29 0.35 0.39 0.32 0.19 0.15 0.09 0.05 0.04 0.07 0.11
0.00 0.01 0.00 0.00 0.04 0.07 0.08 0.12 0.16 0.08 0.02 0.07 0.14 0.16 0.19 0.23 0.19 0.14 0.10 0.10 0.14 0.17 0.20 0.20 0.16 0.12 0.11 0.13 0.14 0.20 0.28 0.36
0.02 0.02 0.01 0.01 0.05 0.08 0.10 0.13 0.19 0.10 0.07 0.08 0.14 0.18 0.16 0.15 0.11 0.10 0.06 0.07 0.10 0.10 0.08 0.07 0.08 0.11 0.14 0.25 0.48 0.44 0.39 0.48
0.03 0.02 0.01 0.02 0.04 0.08 0.08 0.07 0.10 0.10 0.13 0.07 0.06 0.13 0.16 0.16 0.13 0.17 0.12 0.07 0.06 0.15 0.22 0.20 0.16 0.19 0.35 0.43 0.47 0.42 0.46 0.52
0.01 0.01 0.02 0.03 0.07 0.18 0.12 0.11 0.11 0.07 0.11 0.17 0.21 0.26 0.31 0.37 0.36 0.31 0.19 0.21 0.24 0.39 0.53 0.56 0.47 0.37 0.37 0.48 0.59 0.57 0.60 0.52
0.00 0.01 0.02 0.03 0.03 0.16 0.20 0.13 0.12 0.08 0.11 0.16 0.25 0.38 0.40 0.31 0.35 0.58 0.42 0.37 0.28 0.39 0.50 0.40 0.40 0.37 0.40 0.56 0.62 0.47 0.39 0.40
0.00 0.00 0.00 0.01 0.02 0.11 0.16 0.10 0.11 0.10 0.08 0.10 0.15 0.27 0.41 0.48 0.80 1.10 1.22 0.99 0.77 0.49 0.53 0.52 0.39 0.25 0.24 0.26 0.30 0.31 0.31 0.29
0.00 0.00 0.01 0.00 0.01 0.05 0.13 0.23 0.23 0.09 0.10 0.20 0.33 0.40 0.58 0.92 0.88 1.17 0.94 0.90 0.96 0.82 0.62 0.63 0.56 0.50 0.46 0.40 0.33 0.27 0.24 0.20
0.00 0.00 0.01 0.00 0.00 0.01 0.07 0.29 0.53 0.73 0.69 1.01 0.92 1.05 1.21 1.11 1.38 1.94 1.33 0.98 0.72 0.50 0.36 0.28 0.29 0.34 0.37 0.30 0.24 0.19 0.18 0.18
0.00 0.00 0.00 0.00 0.01 0.04 0.21 0.72 1.13 0.95 1.02 1.00 1.09 1.49 0.97 0.59 0.44 0.37 0.33 0.25 0.19 0.12 0.10 0.13 0.15 0.14 0.20 0.27 0.30 0.28 0.27 0.24
0.00 0.00 0.02 0.05 0.06 0.14 0.22 0.46 0.69 0.71 0.73 0.70 0.65 0.63 0.61 0.38 0.30 0.25 0.26 0.24 0.22 0.15 0.13 0.14 0.14 0.14 0.14 0.12 0.11 0.09 0.09 0.13
0.01 0.01 0.03 0.09 0.18 0.20 0.19 0.25 0.28 0.29 0.33 0.29 0.26 0.23 0.18 0.16 0.16 0.12 0.13 0.07 0.06 0.08 0.12 0.19 0.18 0.14 0.14 0.12 0.08 0.07 0.07 0.08
0.00 0.01 0.03 0.04 0.06 0.11 0.16 0.14 0.20 0.21 0.25 0.20 0.16 0.15 0.18 0.15 0.14 0.15 0.08 0.07 0.10 0.14 0.16 0.15 0.13 0.11 0.17 0.11 0.06 0.04 0.04 0.06
0.00 0.00 0.02 0.12 0.05 0.06 0.08 0.13 0.13 0.17 0.22 0.21 0.15 0.20 0.16 0.16 0.16 0.15 0.20 0.30 0.29 0.23 0.24 0.18 0.11 0.08 0.14 0.08 0.08 0.04 0.06 0.07
0.00 0.00 0.08 0.06 0.01 0.02 0.03 0.05 0.06 0.07 0.14 0.19 0.18 0.16 0.16 0.17 0.18 0.23 0.31 0.34 0.32 0.23 0.14 0.13 0.11 0.12 0.15 0.10 0.11 0.04 0.04 0.06